FREGAT DEB, 46260

Orbit data source: Space-Track

FREGAT DEB, 46260 is space debris in LEO originally from a launch on Mon, 18 Jul 2011 UTC launched from the Tyuratam Missile And Space Complex (TTMTR). Debris objects in space refer to the collection of defunct objects orbiting the Earth. Examples of debris include non-operational satellites, rocket bodies, and fragments generated from explosions, collisions, or faulty payload assembly.

Loading next visibility...
Identifier
46260, 2011-037KW
Orbit
LEO
Country
Flag of CISCIS
Related business
Manufacturer
Lavochkin
Mission
Spacecraft
Bus & Motor
Unknown
Mass
Unknown
Launch date (UTC)
2011-07-18 (15 years ago)
Launch vehicle
Unknown
Launch site
Tyuratam Missile And Space Complex (TTMTR)
Object type
Payload
Rocket body
Debris
Shape & HBR
Unknown shape, 0.2 m
Radar Cross Section
Small (<0.1 m²)

Expand to show TLE details & history
Last TLE update: 18 hours ago

TLE from 18 hours ago
0 FREGAT DEB
1 46260U 11037KW  26127.39620314  .00016205  00000-0  14875+0 0  9994
2 46260  51.1905 172.4657 1385820 326.5495  25.4738 10.72562635 47708
Epoch: 2026-05-07T09:30Z
TLE epoch observation values (Epoch: 2026-05-07T09:30:31.951Z)
Latitude
-0.00008°
Longitude
164.58956°
Altitude
1,258.9 km
Speed
7.65 km/s
True Right ascension
11h 29m 51s
True Declination
0° 00' 00"
Sunlit
Object was in full shadow at epoch
Visualization orbit readout
Latitude
Unknown
Longitude
Unknown
Altitude
Unknown
Speed
Unknown
Apparent Right ascension
Unknown
Apparent Declination
Unknown
Sunlit
N/A
Visualization observer readout
Local Sidereal Time
11:43:29
Azimuth
Unknown
Elevation
Unknown
Doppler factor
Unknown
Orbital elements
Apogee altitude
3,511.369 km
Perigee altitude
1,103.975 km
Semi-major axis
8,685.809 km
Eccentricity
0.13858
Inclination
51.1905°
RAAN
172.4657°
Arg. of periapsis
326.5495°
True anomaly
33.53154°
Mean anomaly
25.4738°
Eccentric anomaly
29.36776°
Mean motion
2.68119 °/min
Orbital period
134.27 mins
BSTAR
0.14875
Loading maneuver chart data...
Computing Atmospheric mass density...

Documentation

Showing up to 5 results
|